Wind_Speed
7 8 9 10 11 12 14 15 17 19 21 22 24 25 27 28 29 30 32 33 34 34 35 35 36 36 36 37 37 38 38 39 39 40 40 39 36 33 31 29 27 27 27
8 10 11 12 14 16 18 19 21 23 25 26 28 29 30 32 33 34 35 37 38 39 39 40 40 40 40 40 40 41 41 41 40 41 43 43 41 40 37 35 32 31 30
11 12 14 16 18 20 21 23 25 26 28 30 32 33 35 36 37 38 40 41 42 43 44 44 45 45 45 45 45 45 44 44 44 44 45 45 45 44 43 41 38 36 34
14 16 18 19 21 23 25 26 28 30 32 33 35 36 38 39 41 42 43 44 46 47 48 49 49 50 50 51 50 50 49 49 48 48 48 48 48 48 47 46 44 42 39
18 19 21 22 24 25 27 29 30 32 34 36 37 39 41 42 44 45 47 48 49 50 52 53 53 54 55 55 55 55 55 54 53 53 53 52 52 51 50 49 49 47 45
20 21 23 24 26 27 29 31 33 34 36 38 40 42 43 45 47 49 51 52 54 55 56 57 58 59 60 60 60 60 60 59 59 58 58 57 57 56 55 53 52 51 50
22 23 24 26 27 29 31 33 36 37 39 41 43 45 46 49 51 53 55 57 59 61 62 64 65 66 66 67 67 67 66 65 64 64 63 63 62 61 60 58 56 55 53
23 24 26 28 30 32 35 37 38 40 42 43 46 48 50 53 56 58 60 63 65 67 69 71 73 74 74 75 75 74 73 72 71 70 69 68 67 67 65 63 61 59 57
24 26 28 30 33 35 37 39 40 42 44 46 49 52 55 57 60 63 66 69 72 74 77 79 81 83 83 83 83 83 81 80 78 77 75 74 73 72 71 69 67 65 62
26 29 31 33 35 38 39 41 42 44 47 50 53 56 59 62 65 68 72 75 78 81 84 87 90 92 93 94 94 93 92 90 88 85 83 81 79 78 76 74 73 71 68
29 31 34 36 38 39 41 42 45 48 51 53 56 59 63 66 69 72 76 79 83 87 91 95 98 100 102 104 104 104 103 102 99 95 92 89 87 85 82 80 78 76 74
31 33 35 37 39 40 42 45 48 51 53 56 59 63 66 69 72 75 79 83 88 92 97 101 105 108 111 112 113 113 113 112 110 107 103 99 95 92 89 87 84 82 80
33 35 37 39 41 43 45 48 51 53 56 59 62 65 69 72 75 78 82 87 92 97 101 106 109 111 112 113 113 113 113 114 114 114 112 108 104 101 97 94 91 88 86
34 36 38 40 43 45 48 51 53 56 59 62 65 68 70 73 77 81 86 92 97 101 105 107 108 107 105 104 102 102 103 105 107 110 112 112 111 108 104 101 97 95 92
35 37 40 42 45 48 50 53 55 58 61 64 67 70 73 76 79 85 90 95 100 103 104 103 99 94 91 89 88 88 89 91 93 97 102 107 110 111 109 107 104 101 98
37 40 42 45 47 50 52 55 57 60 62 66 69 72 74 78 83 88 94 98 100 100 97 91 86 83 82 82 83 84 85 86 87 89 92 97 101 106 109 110 109 107 104
39 42 44 47 49 51 54 56 58 61 64 67 70 73 76 81 86 92 96 98 97 93 87 83 81 80 80 81 81 82 84 85 87 88 89 91 94 99 104 108 111 111 110
41 43 45 48 50 53 55 57 60 62 65 68 71 75 79 84 90 94 96 95 91 85 81 80 79 79 79 79 78 78 79 80 83 86 88 89 91 94 98 104 109 112 114
42 44 46 49 51 54 56 58 60 63 66 69 73 76 81 86 91 94 93 90 84 80 79 78 76 78 77 74 72 70 68 68 71 75 82 87 90 91 94 99 106 112 116
43 45 47 50 52 54 56 58 61 64 67 70 74 78 83 88 91 92 90 85 80 78 78 76 75 76 74 71 67 63 60 60 62 65 70 78 85 89 92 97 103 110 116
43 46 48 50 52 54 56 59 62 64 68 71 75 80 85 89 91 90 85 80 78 77 76 74 75 73 69 67 63 58 53 53 53 55 60 67 75 84 90 95 101 107 114
44 47 49 52 54 55 57 60 62 65 68 72 76 81 85 89 89 86 81 78 77 76 75 74 74 71 66 63 60 57 50 43 41 42 47 56 67 79 86 91 98 104 110
47 49 52 54 56 57 59 61 63 66 69 73 77 82 86 87 86 83 79 76 75 75 74 73 72 69 64 57 54 53 50 44 33 29 34 45 58 72 81 87 92 98 105
49 52 54 57 59 60 61 63 65 67 70 74 78 82 85 85 84 81 77 75 74 74 74 73 71 68 62 55 48 45 43 41 33 21 22 34 48 63 75 81 85 91 99
51 54 57 59 62 63 64 65 66 69 72 75 78 82 84 83 81 78 75 74 73 73 73 72 69 65 58 52 46 41 37 33 29 22 16 24 38 53 67 74 77 81 89
53 56 59 62 64 66 66 67 68 70 73 75 79 81 82 81 79 76 74 73 72 72 72 70 68 62 55 49 43 38 34 30 25 20 15 18 29 44 57 67 72 75 79
Wind_Direction
1 352 343 334 327 321 316 313 309 307 304 302 300 299 298 297 295 294 293 292 290 289 287 285 284 282 280 279 277 275 272 270 269 267 266 264 261 258 255 251 246 241 239
345 335 327 321 316 314 311 308 306 304 303 302 300 299 297 296 294 293 291 290 289 288 286 285 283 281 279 277 276 274 273 271 269 267 265 264 262 259 256 253 249 245 241
327 321 317 314 313 311 310 308 306 305 304 303 301 300 298 297 295 293 291 290 288 286 285 283 282 280 278 276 274 272 271 269 268 266 264 263 261 260 257 254 251 247 243
318 316 315 314 313 312 311 310 309 307 306 304 303 301 300 298 296 295 293 291 289 287 285 283 281 279 278 276 274 272 269 267 265 264 263 262 260 259 257 254 252 248 245
316 315 314 314 313 312 311 310 309 307 306 305 303 302 301 299 298 296 294 292 290 288 285 283 281 279 277 275 273 271 269 266 264 262 261 260 259 258 256 254 252 249 246
314 314 313 313 313 313 312 311 309 308 307 305 304 303 302 301 300 298 296 294 292 290 287 285 282 280 277 275 273 271 269 266 264 261 259 258 257 256 254 253 252 250 247
313 314 314 314 314 313 312 311 311 310 309 308 307 305 304 303 302 300 298 296 294 292 290 287 285 282 279 277 274 271 269 266 263 261 258 256 255 253 252 251 250 249 247
314 315 315 315 314 314 313 313 312 311 310 309 308 307 306 305 304 302 300 299 297 295 292 290 287 284 281 278 275 272 269 266 264 261 258 255 253 252 250 249 248 247 246
316 316 316 315 314 314 314 313 313 313 312 311 311 310 308 307 305 304 302 300 298 296 294 291 288 285 282 279 276 272 269 266 263 260 257 255 252 250 249 247 246 244 244
316 317 316 316 315 315 315 315 315 315 314 314 313 311 309 308 306 304 302 300 299 296 294 292 289 286 284 280 277 273 270 266 262 259 257 254 252 249 247 245 244 243 242
317 317 317 316 316 316 317 317 317 317 316 315 313 311 309 307 305 304 302 300 298 296 294 292 290 287 284 282 279 275 271 267 263 259 256 253 251 248 246 244 242 241 240
317 317 317 317 318 319 319 319 319 318 316 314 312 310 308 306 305 303 302 300 299 297 295 293 290 288 286 283 280 277 274 270 266 261 257 253 250 247 245 243 241 239 238
319 319 319 320 320 321 321 320 319 317 315 313 311 310 308 307 305 304 303 301 299 297 295 292 290 288 285 283 280 278 275 272 268 264 259 255 250 247 244 242 240 238 236
321 322 322 322 322 322 321 320 318 316 315 313 311 310 309 308 307 306 305 303 301 299 296 293 291 289 287 284 281 278 274 271 267 264 260 256 251 247 243 240 238 236 235
324 324 324 324 323 322 320 319 317 316 314 313 312 311 311 310 310 309 307 305 303 301 299 297 295 293 289 285 282 278 273 269 265 261 257 254 251 247 243 239 236 234 233
326 326 325 324 322 321 320 318 317 316 315 315 314 313 313 313 312 311 309 308 306 305 304 303 300 297 293 289 285 280 275 270 264 259 254 250 247 245 241 238 235 232 231
328 327 325 323 322 321 320 319 318 317 317 316 316 316 316 315 315 313 313 312 311 310 309 307 304 302 299 295 290 284 278 271 265 259 253 248 244 241 238 235 232 230 228
329 328 326 324 322 321 320 320 319 319 319 319 319 318 318 318 317 317 316 316 315 315 313 311 309 306 304 300 295 289 283 275 267 259 252 247 242 238 234 231 229 227 225
331 329 327 325 324 322 321 321 321 321 321 321 321 321 321 321 321 321 320 320 319 318 317 315 313 311 309 305 300 295 289 280 270 260 252 245 240 236 232 228 226 224 222
334 332 330 328 326 325 323 323 323 323 323 324 323 323 324 323 324 324 324 323 323 322 321 319 317 317 314 311 307 303 296 287 275 263 252 244 238 233 229 226 223 221 220
338 336 335 333 330 328 327 326 325 325 326 326 326 326 326 327 327 328 327 327 326 325 325 323 322 322 319 316 313 309 304 297 284 267 252 242 234 230 227 224 221 219 218
343 341 339 337 335 332 331 329 328 328 328 328 328 328 329 330 331 331 330 330 329 329 328 327 327 326 324 321 319 317 315 308 295 274 253 239 230 225 224 222 219 218 217
345 344 344 342 339 337 334 333 332 331 331 331 331 331 332 333 334 333 333 332 332 332 332 331 331 329 328 326 323 323 324 324 314 285 255 236 228 223 221 220 219 217 215
347 346 346 345 343 340 338 336 335 334 334 333 334 334 335 336 336 336 335 335 335 335 335 334 334 332 330 328 326 325 327 330 329 308 262 238 226 221 219 218 218 216 215
348 348 347 347 346 343 341 339 338 337 336 336 336 337 338 339 339 338 338 338 337 337 338 337 337 335 332 329 328 327 328 331 331 323 284 244 228 221 217 216 216 216 216
348 348 348 348 347 346 344 342 340 339 338 338 338 339 340 341 341 340 340 340 340 340 340 340 339 337 335 331 328 326 326 329 330 325 302 257 232 222 217 215 214 215 216
Height
5878 5878 5877 5877 5876 5875 5874 5873 5872 5871 5870 5869 5867 5866 5864 5863 5861 5860 5858 5857 5856 5855 5854 5853 5853 5852 5852 5852 5852 5852 5853 5855 5856 5857 5857 5859 5862 5864 5866 5867 5869 5870 5871
5878 5877 5876 5875 5874 5873 5872 5871 5869 5868 5866 5865 5863 5862 5860 5858 5857 5855 5854 5852 5850 5849 5848 5847 5846 5845 5845 5845 5845 5845 5846 5847 5848 5849 5850 5852 5854 5856 5858 5861 5863 5865 5866
5877 5876 5875 5873 5872 5871 5869 5867 5866 5864 5862 5860 5858 5856 5855 5853 5851 5849 5847 5845 5844 5842 5840 5839 5838 5837 5837 5837 5837 5837 5838 5839 5840 5840 5841 5843 5845 5847 5850 5853 5855 5858 5860
5875 5874 5872 5870 5869 5867 5865 5864 5862 5859 5857 5855 5853 5851 5848 5846 5844 5842 5840 5838 5836 5834 5832 5830 5829 5828 5827 5827 5827 5827 5828 5829 5830 5830 5832 5833 5835 5837 5840 5843 5846 5850 5853
5873 5871 5869 5867 5865 5864 5862 5859 5857 5855 5852 5850 5847 5844 5842 5839 5836 5834 5831 5829 5826 5824 5822 5820 5818 5817 5816 5815 5815 5815 5816 5817 5819 5820 5821 5823 5824 5826 5829 5832 5836 5840 5844
5870 5868 5866 5864 5862 5860 5857 5855 5852 5849 5846 5843 5840 5837 5834 5831 5828 5825 5821 5818 5815 5812 5810 5808 5805 5804 5803 5802 5801 5801 5802 5803 5805 5807 5808 5810 5812 5814 5817 5821 5825 5829 5834
5867 5865 5863 5860 5858 5855 5852 5849 5846 5843 5839 5836 5832 5829 5825 5821 5818 5814 5810 5806 5803 5799 5796 5793 5790 5788 5787 5785 5785 5785 5786 5787 5789 5791 5793 5796 5798 5801 5804 5808 5812 5817 5822
5863 5861 5859 5856 5853 5850 5847 5843 5839 5836 5832 5828 5824 5819 5815 5810 5806 5801 5796 5792 5788 5783 5779 5776 5772 5770 5768 5766 5765 5765 5766 5768 5770 5773 5775 5779 5782 5785 5789 5794 5798 5803 5808
5860 5857 5854 5851 5848 5845 5841 5837 5832 5828 5824 5819 5814 5809 5804 5799 5793 5788 5782 5777 5771 5766 5760 5755 5751 5747 5744 5742 5741 5741 5742 5745 5748 5752 5755 5759 5762 5766 5771 5777 5783 5788 5794
5856 5853 5850 5846 5842 5838 5834 5829 5825 5820 5815 5810 5804 5799 5793 5787 5781 5774 5768 5761 5754 5747 5740 5733 5727 5721 5717 5714 5712 5712 5713 5717 5721 5726 5731 5736 5740 5745 5752 5758 5765 5771 5778
5851 5848 5844 5840 5836 5831 5826 5821 5816 5811 5805 5800 5794 5788 5782 5775 5769 5762 5753 5745 5736 5727 5718 5709 5700 5692 5686 5682 5678 5677 5678 5682 5688 5695 5703 5709 5715 5722 5729 5737 5745 5752 5760
5846 5842 5838 5833 5829 5824 5818 5813 5808 5802 5796 5790 5784 5778 5771 5763 5756 5747 5738 5728 5718 5707 5695 5683 5671 5661 5652 5646 5641 5638 5639 5642 5649 5658 5668 5677 5686 5695 5703 5713 5722 5731 5740
5840 5836 5831 5827 5821 5816 5811 5805 5799 5793 5787 5781 5774 5767 5759 5750 5741 5731 5721 5709 5697 5684 5669 5656 5642 5629 5618 5609 5604 5601 5600 5601 5607 5615 5627 5638 5650 5663 5674 5685 5696 5707 5718
5835 5830 5825 5820 5814 5808 5803 5797 5791 5784 5777 5770 5763 5755 5746 5736 5725 5714 5701 5687 5672 5656 5640 5624 5609 5596 5584 5575 5568 5564 5563 5563 5567 5573 5584 5596 5610 5625 5641 5655 5668 5681 5693
5829 5824 5818 5813 5807 5801 5795 5788 5782 5775 5767 5759 5750 5741 5731 5720 5708 5694 5679 5662 5644 5625 5606 5590 5575 5563 5552 5543 5536 5530 5527 5526 5529 5534 5543 5554 5567 5584 5603 5621 5637 5652 5666
5823 5818 5812 5806 5800 5794 5787 5780 5773 5765 5756 5747 5737 5727 5715 5703 5688 5673 5655 5635 5615 5595 5576 5560 5546 5534 5523 5514 5506 5499 5494 5492 5493 5497 5504 5515 5528 5543 5562 5583 5602 5620 5636
5818 5812 5806 5799 5793 5786 5779 5771 5763 5754 5745 5735 5723 5711 5698 5684 5668 5650 5630 5608 5587 5568 5550 5535 5521 5508 5496 5484 5474 5466 5460 5457 5457 5461 5468 5478 5491 5505 5523 5543 5564 5584 5604
5812 5806 5800 5793 5785 5778 5770 5762 5753 5743 5733 5721 5709 5696 5681 5664 5646 5627 5605 5584 5563 5544 5528 5512 5497 5483 5469 5455 5444 5434 5426 5421 5420 5424 5432 5442 5455 5470 5487 5506 5526 5548 5569
5807 5801 5794 5786 5778 5770 5761 5752 5742 5731 5720 5708 5694 5680 5664 5646 5626 5605 5583 5562 5542 5525 5508 5492 5476 5460 5444 5429 5417 5406 5396 5388 5385 5388 5395 5406 5420 5437 5454 5471 5489 5510 5533
5801 5794 5787 5779 5770 5761 5752 5742 5731 5720 5707 5694 5680 5664 5647 5627 5607 5585 5563 5542 5524 5507 5490 5473 5457 5440 5421 5405 5393 5382 5371 5361 5355 5356 5361 5372 5388 5404 5421 5437 5455 5475 5499
5796 5788 5780 5772 5762 5752 5742 5731 5720 5708 5695 5681 5665 5648 5630 5610 5589 5567 5545 5526 5508 5490 5472 5455 5438 5421 5404 5386 5372 5362 5353 5339 5330 5328 5333 5344 5357 5372 5387 5405 5423 5444 5468
5790 5782 5774 5764 5754 5743 5733 5721 5709 5696 5683 5668 5652 5634 5615 5594 5572 5550 5530 5511 5493 5475 5457 5439 5421 5404 5388 5371 5354 5342 5333 5326 5314 5307 5310 5318 5329 5343 5360 5378 5396 5418 5441
5784 5775 5766 5756 5745 5734 5722 5710 5698 5685 5671 5655 5638 5620 5600 5578 5557 5536 5516 5497 5479 5461 5443 5425 5407 5389 5374 5361 5344 5329 5317 5308 5302 5297 5295 5301 5310 5324 5339 5356 5376 5396 5418
5778 5769 5759 5748 5737 5725 5713 5700 5687 5673 5659 5643 5626 5607 5586 5565 5543 5523 5504 5485 5467 5449 5431 5413 5395 5376 5361 5349 5338 5326 5314 5302 5293 5290 5289 5290 5297 5308 5323 5340 5359 5378 5398
5771 5761 5751 5740 5728 5716 5703 5690 5676 5662 5647 5631 5614 5595 5574 5553 5532 5512 5493 5475 5457 5439 5421 5403 5385 5368 5352 5339 5329 5320 5312 5302 5293 5287 5284 5285 5290 5298 5310 5327 5345 5363 5380
5764 5754 5743 5732 5720 5707 5693 5680 5666 5652 5636 5620 5602 5583 5563 5543 5522 5503 5484 5466 5448 5430 5412 5395 5377 5360 5345 5333 5322 5314 5306 5299 5293 5287 5283 5282 5284 5290 5301 5316 5331 5346 5361